[[{"header":{"parameterUnit":"m.s-1","parameterCategory":1,"la1":30.2991,"la2":30.254,"lo1":-89.0895,"lo2":-89.0444,"dy":0.0017,"dx":0.0017,"nx":28,"ny":28,"refTime":"2024-06-04T21:00:00:Z","depth":0,"parameterNumber":2,"parameterNumberName":"U-component_of_WINDS"},"data":[0,0,0,0,0,0,0,0,0,0,0,0,0,0,0,0,0,0,0,0,0,0,0,0,0,0,0,0,0,0,0,0,0,0,0,0,0,0,0,0,0,0,0,0,0,0,0,0,0,0,0,0,0,0,0,0,0,0,3.3381,3.3382,0,3.3484,3.3485,3.3487,3.3455,3.3453,3.3451,3.3448,3.3559,3.3564,3.3569,0,0,0,0,0,0,0,0,0,0,0,0,0,3.3159,3.3163,3.3381,3.3382,3.3383,3.3484,3.3485,3.3487,3.3455,3.3453,3.345,3.3447,3.3558,3.3563,3.3569,0,0,0,0,0,0,0,0,0,0,0,0,0,3.3258,3.3164,3.3381,3.338,3.3381,3.3484,3.3486,3.3487,3.3456,3.3453,3.3449,3.3446,3.3556,3.3563,3.357,3.3682,0,0,3.3593,3.3596,0,0,0,0,0,0,0,0,3.3252,3.3266,3.3378,3.338,3.3381,3.3453,3.3448,3.3553,3.3457,3.3427,3.3448,3.3445,3.3527,3.3537,3.3563,3.3687,3.3692,3.3594,3.3598,3.3601,3.3604,0,0,0,0,0,0,0,3.3246,3.3262,3.3422,3.338,3.3382,3.3375,3.3385,3.3467,3.3495,3.343,3.3428,3.344,3.3527,3.3556,3.3566,3.3694,3.3594,3.36,3.3605,3.3608,3.3912,3.3916,0,0,0,0,0,0,3.3237,3.3256,3.3419,3.3425,3.3307,3.3382,3.3393,3.3433,3.3493,3.3499,3.3443,3.3438,3.3545,3.3557,3.3569,3.3703,3.3601,3.3608,3.3613,3.3909,3.3913,3.3917,0,0,0,0,0,0,3.3233,3.3252,3.3414,3.334,3.336,3.3389,3.3434,3.3437,3.3466,3.3503,3.3508,3.3467,3.3543,3.3559,3.3653,3.3706,3.3612,3.3619,3.3904,3.391,3.3915,3.3971,0,0,0,0,0,0,3.3226,3.3251,3.3293,3.3341,3.3364,3.3496,3.3438,3.3442,3.3479,3.3474,3.3528,3.3534,3.3542,3.3642,3.3661,3.3715,3.3624,3.39,3.3907,3.3913,3.3965,3.3978,3.3989,0,0,0,0,0,3.3219,3.3306,3.3295,3.3315,3.3417,3.3499,3.3513,3.3519,3.3483,3.3526,3.3549,3.3532,3.3697,3.3652,3.3673,3.373,3.3897,3.3905,3.3913,3.396,3.3976,3.3989,0,0,0,0,0,0,3.3266,3.3313,3.3301,3.3407,3.3449,3.3494,3.3548,3.3536,3.359,3.3584,3.359,3.3603,3.3699,3.3724,3.3673,3.384,3.3792,3.3804,3.382,3.3836,3.3848,3.384,3.3631,0,0,0,0,0,3.3288,3.335,3.3388,3.3477,3.3499,3.352,3.3556,3.3556,3.3601,3.3619,3.365,3.3695,3.3757,3.3798,3.3857,3.3968,3.3979,3.4017,3.4029,3.4039,3.405,3.4109,3.4126,3.3944,3.3944,3.3943,0,0,3.3336,3.3369,3.3408,3.3488,3.352,3.3584,3.3535,3.3606,3.3653,3.3631,3.3721,3.3745,3.3795,3.3898,3.3945,3.3922,3.4103,3.405,3.4057,3.4063,3.4119,3.4136,3.4152,3.3949,3.3948,3.3947,0,0,3.3455,3.3487,3.3564,3.3597,3.3646,3.3659,3.3677,3.3724,3.3738,3.3828,3.3812,3.3869,3.3976,3.4012,3.4045,3.4174,3.416,3.4194,3.4257,3.4315,3.4329,3.4342,3.4387,3.4403,3.4204,3.4204,3.4205,0,3.3509,3.3603,3.3606,3.3676,3.3711,3.3691,3.3769,3.3802,3.3869,3.3894,3.3867,3.3998,3.4032,3.4141,3.4173,3.42,3.4221,3.4188,3.4326,3.4339,3.4351,3.4394,3.4412,3.4208,3.4208,3.4207,3.4207,0,3.3666,3.3732,3.3788,3.385,3.3892,3.3966,3.398,3.4022,3.4018,3.4034,3.4126,3.4164,3.4229,3.4256,3.4254,3.4365,3.4349,3.4324,3.4276,3.4372,3.4413,3.443,3.4213,3.4212,3.4211,3.421,0,0,3.382,3.388,3.3901,3.3928,3.398,3.4031,3.4104,3.4166,3.4201,3.4247,3.4308,3.4398,3.4374,3.4411,3.4413,3.4464,3.4562,3.4432,3.4434,3.4454,3.4685,3.4703,3.4722,3.4552,3.4555,3.4558,3.468,0,3.3943,3.4069,3.4072,3.4188,3.4248,3.4229,3.4292,3.4331,3.4347,3.4401,3.4419,3.4482,3.4447,3.4469,3.4517,3.454,3.4608,3.4531,3.461,3.4612,3.4597,3.4744,3.4764,3.4877,3.4697,3.4699,3.4701,0,3.4104,3.4152,3.4273,3.4314,3.4339,3.4396,3.4452,3.4503,3.4547,3.4555,3.4594,3.4588,3.4663,3.4611,3.4713,3.4661,3.4693,3.4708,3.4713,3.472,3.4663,3.4755,3.4914,3.4931,3.4727,3.4725,3.4723,0,3.4202,3.4298,3.4382,3.4406,3.4456,3.4496,3.4519,3.4559,3.4595,3.4644,3.4668,3.4726,3.4758,3.4803,3.4812,3.4774,3.4915,3.4864,3.4924,3.4923,3.4954,3.4952,3.512,3.4976,3.4976,3.4975,3.4975,0,3.4339,3.4414,3.4427,3.4479,3.4562,3.4564,3.4647,3.4667,3.4702,3.4757,3.4745,3.4798,3.4807,3.4862,3.487,3.4953,3.4968,3.4976,3.4978,3.4977,3.4976,3.4999,3.4991,3.498,3.4979,3.4978,3.4977,0,3.4464,3.4476,3.4566,3.4605,3.4616,3.4675,3.4709,3.4758,3.4772,3.4842,3.4859,3.4882,3.4945,3.4959,3.5035,3.504,3.5138,3.5132,3.5123,3.5123,3.518,3.5174,3.5369,3.5394,3.5233,3.5235,3.5236,0,3.455,3.4607,3.465,3.4686,3.471,3.4767,3.4803,3.4808,3.4846,3.4897,3.4941,3.5002,3.5052,3.5155,3.5178,3.5236,3.5231,3.5295,3.524,3.5237,3.5231,3.5227,3.5232,3.5306,3.5307,3.5309,3.531,0,3.4702,3.4704,3.4756,3.4809,3.4852,3.4894,3.4935,3.4965,3.4974,3.5018,3.5082,3.512,3.5196,3.5257,3.5314,3.5339,3.5326,3.5327,3.5343,3.5344,3.5335,3.5339,3.5151,3.5323,3.5321,3.532,3.532,3.5319,3.481,3.4858,3.4896,3.4953,3.4983,3.5021,3.5068,3.5087,3.5139,3.52,3.52,3.5269,3.5309,3.5384,3.5411,3.5466,3.5446,3.5471,3.5477,3.5482,3.5487,3.5326,3.5477,3.5476,3.5476,3.5476,3.5475,0,3.496,3.4982,3.5035,3.509,3.5135,3.5117,3.516,3.5199,3.5259,3.5297,3.5345,3.5417,3.5476,3.5503,3.556,3.5599,3.5594,3.5614,3.5611,3.5616,3.5502,3.5481,3.5616,3.5616,3.5616,3.5616,3.5616,3.5616,3.5044,3.5124,3.513,3.5225,3.5247,3.5313,3.5339,3.5373,3.5403,3.5483,3.5531,3.5547,3.558,3.564,3.5692,3.5699,3.5721,3.5743,3.5746,3.5639,3.5625,3.5611,3.5592,3.5748,3.5748,3.5856,3.5857,3.5858]},{"header":{"parameterUnit":"m.s-1","parameterCategory":1,"la1":30.2991,"la2":30.254,"lo1":-89.0895,"lo2":-89.0444,"dy":0.0017,"dx":0.0017,"nx":28,"ny":28,"refTime":"2024-06-04T21:00:00:Z","depth":0,"parameterNumber":3,"parameterNumberName":"V-component_of_WINDS"},"data":[0,0,0,0,0,0,0,0,0,0,0,0,0,0,0,0,0,0,0,0,0,0,0,0,0,0,0,0,0,0,0,0,0,0,0,0,0,0,0,0,0,0,0,0,0,0,0,0,0,0,0,0,0,0,0,0,0,0,1.7742,1.7743,0,1.7818,1.7819,1.7819,1.7814,1.7813,1.7812,1.7811,1.7888,1.7891,1.7894,0,0,0,0,0,0,0,0,0,0,0,0,0,1.7592,1.7595,1.7742,1.7743,1.7744,1.7818,1.7819,1.782,1.7815,1.7813,1.7812,1.7811,1.7887,1.7891,1.7894,0,0,0,0,0,0,0,0,0,0,0,0,0,1.7661,1.7596,1.7742,1.775,1.7752,1.7817,1.7819,1.782,1.7815,1.7813,1.7812,1.781,1.7886,1.789,1.7895,1.7957,0,0,1.7909,1.7911,0,0,0,0,0,0,0,0,1.7658,1.7667,1.7748,1.775,1.7752,1.7805,1.7794,1.7866,1.7815,1.7791,1.7811,1.7809,1.7862,1.7868,1.7886,1.796,1.7964,1.7909,1.7912,1.7914,1.7916,0,0,0,0,0,0,0,1.7653,1.7664,1.7772,1.7749,1.7752,1.775,1.7758,1.7807,1.7835,1.7793,1.7793,1.7802,1.7862,1.7882,1.7888,1.7965,1.7909,1.7913,1.7916,1.7918,1.8092,1.8094,0,0,0,0,0,0,1.7646,1.766,1.777,1.7774,1.77,1.7754,1.7763,1.779,1.7834,1.7839,1.7803,1.7801,1.7875,1.7882,1.7891,1.7966,1.7914,1.7919,1.7921,1.8091,1.8093,1.8095,0,0,0,0,0,0,1.7643,1.7656,1.7767,1.7717,1.7731,1.7758,1.7788,1.7792,1.7811,1.7842,1.7847,1.7818,1.7874,1.7884,1.794,1.7968,1.7921,1.7925,1.8088,1.8091,1.8094,1.8116,0,0,0,0,0,0,1.7639,1.7655,1.7679,1.7718,1.7734,1.7816,1.779,1.7795,1.7819,1.7818,1.7857,1.7862,1.7873,1.7933,1.7945,1.7974,1.7928,1.8086,1.809,1.8093,1.8113,1.8119,1.8125,0,0,0,0,0,1.7633,1.7683,1.768,1.7694,1.7765,1.7817,1.7826,1.7838,1.7821,1.7846,1.7865,1.7861,1.7963,1.7939,1.7952,1.7983,1.8084,1.8089,1.8093,1.811,1.8118,1.8125,0,0,0,0,0,0,1.7647,1.7688,1.7686,1.7749,1.778,1.7816,1.7847,1.7846,1.7882,1.7879,1.7892,1.7901,1.7957,1.7975,1.7948,1.8044,1.8021,1.8028,1.803,1.8038,1.8044,1.8039,1.7932,0,0,0,0,0,1.7657,1.7697,1.773,1.7783,1.7798,1.782,1.7843,1.785,1.7882,1.7895,1.7918,1.795,1.7989,1.8014,1.8052,1.8115,1.8123,1.8142,1.8148,1.8153,1.8159,1.8193,1.8202,1.8108,1.8108,1.8108,0,0,1.7679,1.7706,1.7731,1.7786,1.7811,1.7851,1.7831,1.7875,1.7905,1.7901,1.7956,1.7974,1.801,1.8069,1.8097,1.8086,1.8186,1.8158,1.8162,1.8165,1.8198,1.8207,1.8215,1.8111,1.8111,1.811,0,0,1.774,1.7764,1.7811,1.7835,1.7872,1.7886,1.7897,1.7934,1.7946,1.8001,1.7999,1.8034,1.8101,1.8126,1.8148,1.8216,1.8213,1.8228,1.8259,1.8292,1.8299,1.8306,1.833,1.8339,1.8234,1.8234,1.8234,0,1.7762,1.7824,1.7834,1.7879,1.7903,1.7901,1.7947,1.7971,1.8018,1.8035,1.8022,1.8105,1.8129,1.8195,1.8211,1.8229,1.8241,1.8224,1.8297,1.8304,1.831,1.8334,1.8343,1.8235,1.8235,1.8235,1.8235,0,1.7849,1.7892,1.7924,1.797,1.7998,1.8043,1.806,1.8086,1.809,1.8105,1.816,1.8188,1.8231,1.8247,1.8251,1.8313,1.8305,1.8295,1.8272,1.8321,1.8343,1.8352,1.8237,1.8237,1.8236,1.8236,0,0,1.7922,1.7972,1.7984,1.8005,1.8045,1.8077,1.8121,1.8163,1.8186,1.8218,1.8255,1.8311,1.8302,1.8326,1.8333,1.8362,1.8413,1.8348,1.8349,1.8359,1.8483,1.8491,1.8501,1.8411,1.8413,1.8414,1.848,0,1.7987,1.8066,1.8077,1.8147,1.8186,1.8184,1.8222,1.825,1.8265,1.83,1.8316,1.8355,1.834,1.8354,1.8383,1.8401,1.8438,1.8396,1.8446,1.8447,1.8438,1.8512,1.8521,1.8582,1.8488,1.849,1.8491,0,1.8074,1.8109,1.8182,1.8216,1.8233,1.8267,1.8306,1.8339,1.8371,1.8379,1.8406,1.8408,1.8453,1.8428,1.849,1.8461,1.8481,1.8493,1.8495,1.8501,1.8473,1.8521,1.8602,1.8611,1.8505,1.8504,1.8503,0,1.812,1.8185,1.8237,1.8255,1.8295,1.8319,1.8337,1.8367,1.8391,1.8425,1.844,1.8479,1.85,1.8529,1.8541,1.8521,1.8602,1.8578,1.861,1.861,1.8628,1.8627,1.8714,1.864,1.864,1.864,1.864,0,1.8192,1.8237,1.8258,1.8291,1.8341,1.8352,1.8401,1.8418,1.8444,1.8479,1.8479,1.8512,1.8526,1.856,1.857,1.862,1.8629,1.8637,1.8639,1.8637,1.8636,1.8652,1.8648,1.8642,1.8642,1.8641,1.8641,0,1.8253,1.8268,1.8325,1.8359,1.8368,1.8404,1.8432,1.8463,1.8476,1.8521,1.8532,1.8553,1.8594,1.8608,1.8658,1.8664,1.8722,1.872,1.8711,1.8712,1.8744,1.8741,1.8844,1.8858,1.8775,1.8775,1.8776,0,1.8298,1.8333,1.8369,1.8393,1.8412,1.845,1.8474,1.8485,1.8511,1.8548,1.8575,1.8615,1.8648,1.8713,1.8733,1.877,1.877,1.8803,1.8775,1.8772,1.877,1.8768,1.8772,1.8809,1.881,1.881,1.8811,0,1.8377,1.8382,1.8418,1.8456,1.8485,1.8515,1.8545,1.8564,1.8579,1.8608,1.8649,1.8675,1.8725,1.8765,1.8803,1.8821,1.8818,1.8819,1.8829,1.8828,1.8821,1.8825,1.8726,1.8817,1.8817,1.8816,1.8816,1.8816,1.8431,1.8462,1.8492,1.8531,1.8554,1.8582,1.8612,1.8629,1.8664,1.8706,1.871,1.8755,1.8784,1.8835,1.8854,1.8889,1.888,1.8893,1.8897,1.89,1.8903,1.8815,1.8896,1.8895,1.8895,1.8895,1.8895,0,1.851,1.8529,1.8565,1.8606,1.8637,1.8631,1.8663,1.8689,1.8728,1.8756,1.8788,1.8835,1.8873,1.8896,1.8934,1.8957,1.8957,1.8967,1.8965,1.8969,1.8909,1.8897,1.8966,1.8966,1.8966,1.8966,1.8966,1.8966,1.8555,1.8606,1.8615,1.8677,1.8696,1.874,1.8758,1.8783,1.8805,1.8858,1.889,1.8904,1.8929,1.8969,1.9003,1.9008,1.9023,1.9033,1.9038,1.8981,1.8974,1.8967,1.8956,1.9036,1.9036,1.9096,1.9096,1.9097]}]]